Time,TemperatureF,DewpointF,PressureIn,WindDirection,WindDirectionDegrees,WindSpeedMPH,WindSpeedGustMPH,Humidity,HourlyPrecipIn,Conditions,Clouds,dailyrainin,SolarRadiationWatts/m^2,SoftwareType,DateUTC
2013-03-26 00:02:00,36.0,22.0,-100.00,WNW,301,5.0,10.0,56,0.00,,,0.00,1.000000,,2013-03-26 05:02:00,
2013-03-26 00:32:00,36.0,22.0,-100.00,WNW,302,6.0,12.0,56,0.00,,,0.00,1.000000,,2013-03-26 05:32:00,
2013-03-26 00:42:00,36.0,22.0,-100.00,WNW,302,6.0,12.0,56,0.00,,,0.00,1.000000,,2013-03-26 05:42:00,
2013-03-26 00:52:00,36.0,22.0,-100.00,WNW,302,6.0,12.0,56,0.00,,,0.00,1.000000,,2013-03-26 05:52:00,
2013-03-26 01:02:00,36.0,22.0,-100.00,WNW,302,6.0,12.0,56,0.00,,,0.00,1.000000,,2013-03-26 06:02:00,
2013-03-26 01:32:00,35.0,23.0,-100.00,NW,317,8.0,14.0,60,0.00,,,0.00,1.000000,,2013-03-26 06:32:00,
2013-03-26 01:43:00,35.0,23.0,-100.00,NW,317,8.0,14.0,60,0.00,,,0.00,1.000000,,2013-03-26 06:43:00,
2013-03-26 01:52:00,35.0,23.0,-100.00,NW,317,8.0,14.0,60,0.00,,,0.00,1.000000,,2013-03-26 06:52:00,
2013-03-26 02:02:00,35.0,23.0,-100.00,NW,317,8.0,14.0,60,0.00,,,0.00,1.000000,,2013-03-26 07:02:00,
2013-03-26 02:43:00,35.0,22.0,-100.00,NW,317,10.0,19.0,58,0.00,,,0.00,1.000000,,2013-03-26 07:43:00,
2013-03-26 02:53:00,35.0,22.0,-100.00,NW,317,10.0,19.0,58,0.00,,,0.00,1.000000,,2013-03-26 07:53:00,
2013-03-26 03:02:00,35.0,22.0,-100.00,NW,317,10.0,19.0,58,0.00,,,0.00,1.000000,,2013-03-26 08:02:00,
2013-03-26 03:32:00,34.0,21.0,-100.00,NW,305,6.0,17.0,59,0.00,,,0.00,1.000000,,2013-03-26 08:32:00,
2013-03-26 03:42:00,34.0,21.0,-100.00,NW,305,6.0,17.0,59,0.00,,,0.00,1.000000,,2013-03-26 08:42:00,
2013-03-26 03:52:00,34.0,21.0,-100.00,NW,305,6.0,17.0,59,0.00,,,0.00,1.000000,,2013-03-26 08:52:00,
2013-03-26 04:02:00,34.0,21.0,-100.00,NW,305,6.0,17.0,59,0.00,,,0.00,1.000000,,2013-03-26 09:02:00,
2013-03-26 04:33:00,31.0,21.0,-100.00,WNW,291,4.0,12.0,66,0.00,,,0.00,1.000000,,2013-03-26 09:33:00,
2013-03-26 04:43:00,31.0,21.0,-100.00,WNW,291,4.0,12.0,66,0.00,,,0.00,1.000000,,2013-03-26 09:43:00,
2013-03-26 04:52:00,31.0,21.0,-100.00,WNW,291,4.0,12.0,66,0.00,,,0.00,1.000000,,2013-03-26 09:52:00,
2013-03-26 05:02:00,31.0,21.0,-100.00,WNW,291,4.0,12.0,66,0.00,,,0.00,1.000000,,2013-03-26 10:02:00,
2013-03-26 05:33:00,29.0,21.0,-100.00,WNW,289,3.0,8.0,71,0.00,,,0.00,1.000000,,2013-03-26 10:33:00,
2013-03-26 05:43:00,29.0,21.0,-100.00,WNW,289,3.0,8.0,71,0.00,,,0.00,1.000000,,2013-03-26 10:43:00,
2013-03-26 05:53:00,29.0,21.0,-100.00,WNW,289,3.0,8.0,71,0.00,,,0.00,1.000000,,2013-03-26 10:53:00,
2013-03-26 06:03:00,29.0,21.0,-100.00,WNW,289,3.0,8.0,71,0.00,,,0.00,1.000000,,2013-03-26 11:03:00,
2013-03-26 06:33:00,29.0,22.0,-100.00,WNW,299,4.0,7.0,75,0.00,,,0.00,1.000000,,2013-03-26 11:33:00,
2013-03-26 06:43:00,29.0,22.0,-100.00,WNW,299,4.0,7.0,75,0.00,,,0.00,1.000000,,2013-03-26 11:43:00,
2013-03-26 06:52:00,29.0,22.0,-100.00,WNW,299,4.0,7.0,75,0.00,,,0.00,1.000000,,2013-03-26 11:52:00,
2013-03-26 07:03:00,29.0,22.0,-100.00,WNW,299,4.0,7.0,75,0.00,,,0.00,1.000000,,2013-03-26 12:03:00,
2013-03-26 07:32:00,29.0,22.0,-100.00,NW,311,4.0,7.0,76,0.00,,,0.00,3.000000,,2013-03-26 12:32:00,
2013-03-26 07:43:00,29.0,22.0,-100.00,NW,311,4.0,7.0,76,0.00,,,0.00,3.000000,,2013-03-26 12:43:00,
2013-03-26 07:52:00,29.0,22.0,-100.00,NW,311,4.0,7.0,76,0.00,,,0.00,3.000000,,2013-03-26 12:52:00,
2013-03-26 08:03:00,29.0,22.0,-100.00,NW,311,4.0,7.0,76,0.00,,,0.00,3.000000,,2013-03-26 13:03:00,
2013-03-26 08:32:00,31.0,23.0,-100.00,NW,305,4.0,11.0,73,0.00,,,0.00,23.000000,,2013-03-26 13:32:00,
2013-03-26 08:42:00,31.0,23.0,-100.00,NW,305,4.0,11.0,73,0.00,,,0.00,23.000000,,2013-03-26 13:42:00,
2013-03-26 08:52:00,31.0,23.0,-100.00,NW,305,4.0,11.0,73,0.00,,,0.00,23.000000,,2013-03-26 13:52:00,
2013-03-26 09:02:00,31.0,23.0,-100.00,NW,305,4.0,11.0,73,0.00,,,0.00,23.000000,,2013-03-26 14:02:00,
2013-03-26 09:33:00,34.0,26.0,-100.00,WNW,299,6.0,11.0,71,0.00,,,0.00,122.000000,,2013-03-26 14:33:00,
2013-03-26 09:42:00,34.0,26.0,-100.00,WNW,299,6.0,11.0,71,0.00,,,0.00,122.000000,,2013-03-26 14:42:00,
2013-03-26 09:53:00,34.0,26.0,-100.00,WNW,299,6.0,11.0,71,0.00,,,0.00,122.000000,,2013-03-26 14:53:00,
2013-03-26 10:02:00,34.0,26.0,-100.00,WNW,299,6.0,11.0,71,0.00,,,0.00,122.000000,,2013-03-26 15:02:00,
2013-03-26 10:33:00,36.0,26.0,-100.00,NNW,337,8.0,14.0,67,0.00,,,0.00,225.000000,,2013-03-26 15:33:00,
2013-03-26 10:43:00,36.0,26.0,-100.00,NNW,337,8.0,14.0,67,0.00,,,0.00,225.000000,,2013-03-26 15:43:00,
2013-03-26 10:53:00,36.0,26.0,-100.00,NNW,337,8.0,14.0,67,0.00,,,0.00,225.000000,,2013-03-26 15:53:00,
2013-03-26 11:03:00,36.0,26.0,-100.00,NNW,337,8.0,14.0,67,0.00,,,0.00,225.000000,,2013-03-26 16:03:00,
2013-03-26 11:33:00,39.0,27.0,-100.00,NNW,329,7.0,14.0,61,0.00,,,0.00,413.000000,,2013-03-26 16:33:00,
2013-03-26 11:42:00,39.0,27.0,-100.00,NNW,329,7.0,14.0,61,0.00,,,0.00,413.000000,,2013-03-26 16:42:00,
2013-03-26 11:53:00,39.0,27.0,-100.00,NNW,329,7.0,14.0,61,0.00,,,0.00,413.000000,,2013-03-26 16:53:00,
2013-03-26 12:02:00,39.0,27.0,-100.00,NNW,329,7.0,14.0,61,0.00,,,0.00,413.000000,,2013-03-26 17:02:00,
2013-03-26 12:42:00,41.0,23.0,-100.00,NNW,335,7.0,15.0,49,0.00,,,0.00,398.000000,,2013-03-26 17:42:00,
2013-03-26 12:53:00,41.0,23.0,-100.00,NNW,335,7.0,15.0,49,0.00,,,0.00,398.000000,,2013-03-26 17:53:00,
2013-03-26 13:02:00,41.0,23.0,-100.00,NNW,335,7.0,15.0,49,0.00,,,0.00,398.000000,,2013-03-26 18:02:00,
2013-03-26 14:42:00,42.0,23.0,-100.00,NW,321,6.0,14.0,46,-99.99,,,0.00,348.000000,,2013-03-26 19:42:00,
2013-03-26 14:53:00,42.0,23.0,-100.00,NW,321,6.0,14.0,46,-99.99,,,0.00,348.000000,,2013-03-26 19:53:00,
2013-03-26 15:02:00,42.0,23.0,-100.00,NW,321,6.0,14.0,46,-99.99,,,0.00,348.000000,,2013-03-26 20:02:00,
2013-03-26 15:32:00,43.0,23.0,-100.00,NNW,341,5.0,17.0,44,0.00,,,0.00,335.000000,,2013-03-26 20:32:00,
2013-03-26 15:43:00,43.0,23.0,-100.00,NNW,341,5.0,17.0,44,0.00,,,0.00,335.000000,,2013-03-26 20:43:00,
2013-03-26 15:52:00,43.0,23.0,-100.00,NNW,341,5.0,17.0,44,0.00,,,0.00,335.000000,,2013-03-26 20:52:00,
2013-03-26 16:02:00,43.0,23.0,-100.00,NNW,341,5.0,17.0,44,0.00,,,0.00,335.000000,,2013-03-26 21:02:00,
2013-03-26 16:33:00,45.0,24.0,-100.00,NNW,330,7.0,12.0,43,0.00,,,0.00,314.000000,,2013-03-26 21:33:00,
2013-03-26 16:43:00,45.0,24.0,-100.00,NNW,330,7.0,12.0,43,0.00,,,0.00,314.000000,,2013-03-26 21:43:00,
2013-03-26 16:52:00,45.0,24.0,-100.00,NNW,330,7.0,12.0,43,0.00,,,0.00,314.000000,,2013-03-26 21:52:00,
2013-03-26 17:02:00,45.0,24.0,-100.00,NNW,330,7.0,12.0,43,0.00,,,0.00,314.000000,,2013-03-26 22:02:00,
2013-03-26 17:42:00,47.0,22.0,-100.00,NW,324,7.0,15.0,37,0.00,,,0.00,535.000000,,2013-03-26 22:42:00,
2013-03-26 17:52:00,47.0,22.0,-100.00,NW,324,7.0,15.0,37,0.00,,,0.00,535.000000,,2013-03-26 22:52:00,
2013-03-26 18:01:00,47.0,22.0,-100.00,NW,324,7.0,15.0,37,0.00,,,0.00,535.000000,,2013-03-26 23:01:00,
2013-03-26 18:32:00,43.0,20.0,-100.00,NW,310,5.0,15.0,39,0.00,,,0.00,241.000000,,2013-03-26 23:32:00,
2013-03-26 18:43:00,43.0,20.0,-100.00,NW,310,5.0,15.0,39,0.00,,,0.00,241.000000,,2013-03-26 23:43:00,
2013-03-26 18:53:00,43.0,20.0,-100.00,NW,310,5.0,15.0,39,0.00,,,0.00,241.000000,,2013-03-26 23:53:00,
2013-03-26 19:02:00,43.0,20.0,-100.00,NW,310,5.0,15.0,39,0.00,,,0.00,241.000000,,2013-03-27 00:02:00,
2013-03-26 20:33:00,35.0,23.0,-100.00,NNW,337,0.0,5.0,61,-99.99,,,0.00,2.000000,,2013-03-27 01:33:00,
2013-03-26 20:43:00,35.0,23.0,-100.00,NNW,337,0.0,5.0,61,-99.99,,,0.00,2.000000,,2013-03-27 01:43:00,
2013-03-26 20:53:00,35.0,23.0,-100.00,NNW,337,0.0,5.0,61,-99.99,,,0.00,2.000000,,2013-03-27 01:53:00,
2013-03-26 21:03:00,35.0,23.0,-100.00,NNW,337,0.0,5.0,61,-99.99,,,0.00,2.000000,,2013-03-27 02:03:00,
2013-03-26 21:32:00,32.0,25.0,-100.00,NE,51,0.0,4.0,76,0.00,,,0.00,1.000000,,2013-03-27 02:32:00,
2013-03-26 21:42:00,32.0,25.0,-100.00,NE,51,0.0,4.0,76,0.00,,,0.00,1.000000,,2013-03-27 02:42:00,
2013-03-26 21:53:00,32.0,25.0,-100.00,NE,51,0.0,4.0,76,0.00,,,0.00,1.000000,,2013-03-27 02:53:00,
2013-03-26 22:02:00,32.0,25.0,-100.00,NE,51,0.0,4.0,76,0.00,,,0.00,1.000000,,2013-03-27 03:02:00,
2013-03-26 22:43:00,30.0,24.0,-100.00,ENE,66,1.0,2.0,79,0.00,,,0.00,1.000000,,2013-03-27 03:43:00,
2013-03-26 22:53:00,30.0,24.0,-100.00,ENE,66,1.0,2.0,79,0.00,,,0.00,1.000000,,2013-03-27 03:53:00,
2013-03-26 23:02:00,30.0,24.0,-100.00,ENE,66,1.0,2.0,79,0.00,,,0.00,1.000000,,2013-03-27 04:02:00,
2013-03-26 23:33:00,28.0,24.0,-100.00,ENE,66,0.0,2.0,85,0.00,,,0.00,1.000000,,2013-03-27 04:33:00,
2013-03-26 23:43:00,28.0,24.0,-100.00,ENE,66,0.0,2.0,85,0.00,,,0.00,1.000000,,2013-03-27 04:43:00,
2013-03-26 23:52:00,28.0,24.0,-100.00,ENE,66,0.0,2.0,85,0.00,,,0.00,1.000000,,2013-03-27 04:52:00,